Вернуться в каталог

CLEMENTINE

АктивенВоенныеPO
NORAD 25978·PAYLOAD·🇫🇷 France

Запущен Dec 3, 1999 с Guiana Space Centre

Loading…

Ближайшие Пролёты (ближайшие 24 часа)

TLE

СвежийSource: Space-Track

Эпоха: Sep 14, 2026, 13:20 UTC

1 25978U 99064B   26257.55593803  .00022119  00000-0  48888-3 0  9993
2 25978  98.1476   2.1983 0001969 171.7393 188.3885 15.43868043722326

Отслеживайте CLEMENTINE в реальном времени с AllMySat

Download on the App Store